Time,TemperatureF,DewpointF,PressureIn,WindDirection,WindDirectionDegrees,WindSpeedMPH,WindSpeedGustMPH,Humidity,HourlyPrecipIn,Conditions,Clouds,dailyrainin,SoftwareType,DateUTC
2013-04-17 00:11:00,59.7,54.0,30.28,East,85,0.0,-999.0,81,-99.99,,,0.00,weatherlink.com 1.10,2013-04-17 04:11:00,
2013-04-17 00:27:00,60.2,54.0,30.28,East,85,0.0,-999.0,81,-99.99,,,0.00,weatherlink.com 1.10,2013-04-17 04:27:00,
2013-04-17 00:42:00,60.1,54.0,30.28,East,85,0.0,-999.0,81,-99.99,,,0.00,weatherlink.com 1.10,2013-04-17 04:42:00,
2013-04-17 00:57:00,59.3,54.0,30.28,East,85,0.0,-999.0,82,-99.99,,,0.00,weatherlink.com 1.10,2013-04-17 04:57:00,
2013-04-17 01:12:00,58.3,53.0,30.29,East,85,0.0,-999.0,83,-99.99,,,0.00,weatherlink.com 1.10,2013-04-17 05:12:00,
2013-04-17 01:27:00,58.3,53.0,30.28,East,85,0.0,-999.0,83,-99.99,,,0.00,weatherlink.com 1.10,2013-04-17 05:27:00,
2013-04-17 01:42:00,57.9,53.0,30.29,East,85,0.0,-999.0,83,-99.99,,,0.00,weatherlink.com 1.10,2013-04-17 05:42:00,
2013-04-17 01:57:00,57.5,52.0,30.28,East,85,0.0,-999.0,83,-99.99,,,0.00,weatherlink.com 1.10,2013-04-17 05:57:00,
2013-04-17 02:12:00,56.8,52.0,30.28,East,85,0.0,-999.0,84,-99.99,,,0.00,weatherlink.com 1.10,2013-04-17 06:12:00,
2013-04-17 02:27:00,56.7,52.0,30.28,East,85,0.0,-999.0,84,-99.99,,,0.00,weatherlink.com 1.10,2013-04-17 06:27:00,
2013-04-17 02:42:00,56.6,52.0,30.28,East,85,0.0,-999.0,84,-99.99,,,0.00,weatherlink.com 1.10,2013-04-17 06:42:00,
2013-04-17 02:57:00,56.2,52.0,30.28,East,85,0.0,-999.0,84,-99.99,,,0.00,weatherlink.com 1.10,2013-04-17 06:57:00,
2013-04-17 03:13:00,56.2,52.0,30.28,East,85,0.0,-999.0,84,-99.99,,,0.00,weatherlink.com 1.10,2013-04-17 07:13:00,
2013-04-17 03:28:00,56.1,51.0,30.27,East,85,0.0,-999.0,84,-99.99,,,0.00,weatherlink.com 1.10,2013-04-17 07:28:00,
2013-04-17 03:43:00,55.7,51.0,30.28,East,85,0.0,-999.0,84,-99.99,,,0.00,weatherlink.com 1.10,2013-04-17 07:43:00,
2013-04-17 03:58:00,56.0,51.0,30.28,East,85,0.0,-999.0,84,-99.99,,,0.00,weatherlink.com 1.10,2013-04-17 07:58:00,
2013-04-17 04:13:00,56.1,51.0,30.28,East,85,0.0,-999.0,84,-99.99,,,0.00,weatherlink.com 1.10,2013-04-17 08:13:00,
2013-04-17 04:28:00,56.6,52.0,30.28,East,85,0.0,-999.0,84,-99.99,,,0.00,weatherlink.com 1.10,2013-04-17 08:28:00,
2013-04-17 04:43:00,55.8,51.0,30.27,East,85,0.0,-999.0,84,-99.99,,,0.00,weatherlink.com 1.10,2013-04-17 08:43:00,
2013-04-17 04:58:00,55.8,51.0,30.27,East,85,0.0,-999.0,84,-99.99,,,0.00,weatherlink.com 1.10,2013-04-17 08:58:00,
2013-04-17 05:13:00,55.4,51.0,30.28,East,85,0.0,-999.0,84,-99.99,,,0.00,weatherlink.com 1.10,2013-04-17 09:13:00,
2013-04-17 05:28:00,55.4,51.0,30.28,East,85,0.0,-999.0,85,-99.99,,,0.00,weatherlink.com 1.10,2013-04-17 09:28:00,
2013-04-17 05:43:00,55.8,51.0,30.29,East,85,0.0,-999.0,85,-99.99,,,0.00,weatherlink.com 1.10,2013-04-17 09:43:00,
2013-04-17 05:59:00,56.1,52.0,30.29,South,179,2.0,-999.0,85,-99.99,,,0.00,weatherlink.com 1.10,2013-04-17 09:59:00,
2013-04-17 06:14:00,56.7,52.0,30.29,South,179,0.0,-999.0,85,-99.99,,,0.00,weatherlink.com 1.10,2013-04-17 10:14:00,
2013-04-17 06:29:00,57.3,53.0,30.28,South,179,0.0,-999.0,85,-99.99,,,0.00,weatherlink.com 1.10,2013-04-17 10:29:00,
2013-04-17 06:44:00,56.9,53.0,30.28,South,179,0.0,-999.0,85,-99.99,,,0.00,weatherlink.com 1.10,2013-04-17 10:44:00,
2013-04-17 06:59:00,56.9,53.0,30.29,ESE,103,0.0,-999.0,85,-99.99,,,0.00,weatherlink.com 1.10,2013-04-17 10:59:00,
2013-04-17 07:14:00,56.9,53.0,30.29,ESE,103,0.0,-999.0,85,-99.99,,,0.00,weatherlink.com 1.10,2013-04-17 11:14:00,
2013-04-17 07:29:00,57.2,53.0,30.29,ESE,103,0.0,-999.0,85,-99.99,,,0.00,weatherlink.com 1.10,2013-04-17 11:29:00,
2013-04-17 07:59:00,58.4,54.0,30.30,ESE,103,0.0,-999.0,84,-99.99,,,0.00,weatherlink.com 1.10,2013-04-17 11:59:00,
2013-04-17 08:14:00,59.9,55.0,30.30,ESE,103,0.0,-999.0,84,-99.99,,,0.00,weatherlink.com 1.10,2013-04-17 12:14:00,
2013-04-17 08:29:00,61.2,56.0,30.29,ESE,103,0.0,-999.0,82,-99.99,,,0.00,weatherlink.com 1.10,2013-04-17 12:29:00,
2013-04-17 08:44:00,61.9,56.0,30.28,ESE,103,0.0,-999.0,82,-99.99,,,0.00,weatherlink.com 1.10,2013-04-17 12:44:00,
2013-04-17 09:00:00,62.5,56.0,30.28,North,1,0.0,-999.0,80,-99.99,,,0.00,weatherlink.com 1.10,2013-04-17 13:00:00,
2013-04-17 09:15:00,64.7,57.0,30.28,NW,304,0.0,-999.0,75,-99.99,,,0.00,weatherlink.com 1.10,2013-04-17 13:15:00,
2013-04-17 09:30:00,65.6,57.0,30.28,NW,304,0.0,-999.0,73,-99.99,,,0.00,weatherlink.com 1.10,2013-04-17 13:30:00,
2013-04-17 09:45:00,65.7,56.0,30.27,West,272,0.0,-999.0,72,-99.99,,,0.00,weatherlink.com 1.10,2013-04-17 13:45:00,
2013-04-17 10:00:00,67.3,58.0,30.28,West,272,4.0,-999.0,72,-99.99,,,0.00,weatherlink.com 1.10,2013-04-17 14:00:00,
2013-04-17 10:15:00,69.5,58.0,30.27,NNW,341,1.0,-999.0,66,-99.99,,,0.00,weatherlink.com 1.10,2013-04-17 14:15:00,
2013-04-17 10:30:00,70.4,58.0,30.27,West,264,0.0,-999.0,64,-99.99,,,0.00,weatherlink.com 1.10,2013-04-17 14:30:00,
2013-04-17 10:45:00,71.6,58.0,30.27,WNW,292,1.0,-999.0,62,-99.99,,,0.00,weatherlink.com 1.10,2013-04-17 14:45:00,
2013-04-17 11:00:00,72.5,58.0,30.27,NW,309,0.0,-999.0,61,-99.99,,,0.00,weatherlink.com 1.10,2013-04-17 15:00:00,
2013-04-17 11:16:00,71.9,58.0,30.29,WNW,292,0.0,-999.0,61,-99.99,,,0.00,weatherlink.com 1.10,2013-04-17 15:16:00,
2013-04-17 11:31:00,71.5,57.0,30.29,NNW,329,4.0,-999.0,61,-99.99,,,0.00,weatherlink.com 1.10,2013-04-17 15:31:00,
2013-04-17 11:46:00,72.3,57.0,30.29,WNW,284,3.0,-999.0,59,-99.99,,,0.00,weatherlink.com 1.10,2013-04-17 15:46:00,
2013-04-17 12:01:00,73.0,58.0,30.29,NNW,336,1.0,-999.0,59,-99.99,,,0.00,weatherlink.com 1.10,2013-04-17 16:01:00,
2013-04-17 12:16:00,72.7,54.0,30.28,ESE,107,1.0,-999.0,53,-99.99,,,0.00,weatherlink.com 1.10,2013-04-17 16:16:00,
2013-04-17 12:31:00,73.4,55.0,30.28,North,350,1.0,-999.0,53,-99.99,,,0.00,weatherlink.com 1.10,2013-04-17 16:31:00,
2013-04-17 12:46:00,73.6,55.0,30.28,ENE,74,0.0,-999.0,53,-99.99,,,0.00,weatherlink.com 1.10,2013-04-17 16:46:00,
2013-04-17 13:01:00,72.8,57.0,30.27,NE,56,0.0,-999.0,57,-99.99,,,0.00,weatherlink.com 1.10,2013-04-17 17:01:00,
2013-04-17 13:16:00,71.9,59.0,30.27,NNW,330,1.0,-999.0,63,-99.99,,,0.00,weatherlink.com 1.10,2013-04-17 17:16:00,
2013-04-17 13:32:00,71.9,59.0,30.27,WNW,290,1.0,-999.0,63,-99.99,,,0.00,weatherlink.com 1.10,2013-04-17 17:32:00,
2013-04-17 13:46:00,71.9,59.0,30.27,NW,312,2.0,-999.0,64,-99.99,,,0.00,weatherlink.com 1.10,2013-04-17 17:46:00,
2013-04-17 14:02:00,72.1,57.0,30.26,North,3,0.0,-999.0,60,-99.99,,,0.00,weatherlink.com 1.10,2013-04-17 18:02:00,
2013-04-17 14:17:00,75.1,58.0,30.25,WNW,301,0.0,-999.0,55,-99.99,,,0.00,weatherlink.com 1.10,2013-04-17 18:17:00,
2013-04-17 14:32:00,75.1,56.0,30.25,NW,313,0.0,-999.0,51,-99.99,,,0.00,weatherlink.com 1.10,2013-04-17 18:32:00,
2013-04-17 14:47:00,75.6,56.0,30.24,NE,36,0.0,-999.0,51,-99.99,,,0.00,weatherlink.com 1.10,2013-04-17 18:47:00,
2013-04-17 15:02:00,75.6,55.0,30.24,North,3,3.0,-999.0,49,-99.99,,,0.00,weatherlink.com 1.10,2013-04-17 19:02:00,
2013-04-17 15:17:00,74.3,56.0,30.23,West,273,0.0,-999.0,53,-99.99,,,0.00,weatherlink.com 1.10,2013-04-17 19:17:00,
2013-04-17 15:32:00,74.8,57.0,30.21,NW,309,0.0,-999.0,54,-99.99,,,0.00,weatherlink.com 1.10,2013-04-17 19:32:00,
2013-04-17 15:47:00,74.5,57.0,30.21,WNW,283,0.0,-999.0,54,-99.99,,,0.00,weatherlink.com 1.10,2013-04-17 19:47:00,
2013-04-17 16:02:00,74.4,57.0,30.21,NNW,343,0.0,-999.0,55,-99.99,,,0.00,weatherlink.com 1.10,2013-04-17 20:02:00,
2013-04-17 16:17:00,74.6,58.0,30.20,ENE,64,0.0,-999.0,57,-99.99,,,0.00,weatherlink.com 1.10,2013-04-17 20:17:00,
2013-04-17 16:33:00,75.0,59.0,30.19,ENE,70,0.0,-999.0,57,-99.99,,,0.00,weatherlink.com 1.10,2013-04-17 20:33:00,
2013-04-17 16:48:00,75.7,58.0,30.19,NW,323,1.0,-999.0,55,-99.99,,,0.00,weatherlink.com 1.10,2013-04-17 20:48:00,
2013-04-17 17:03:00,75.2,58.0,30.18,WSW,253,0.0,-999.0,56,-99.99,,,0.00,weatherlink.com 1.10,2013-04-17 21:03:00,
2013-04-17 17:18:00,74.7,58.0,30.19,NNW,344,0.0,-999.0,57,-99.99,,,0.00,weatherlink.com 1.10,2013-04-17 21:18:00,
2013-04-17 17:33:00,74.9,58.0,30.19,North,10,0.0,-999.0,55,-99.99,,,0.00,weatherlink.com 1.10,2013-04-17 21:33:00,
2013-04-17 17:48:00,74.5,58.0,30.19,NNE,26,1.0,-999.0,56,-99.99,,,0.00,weatherlink.com 1.10,2013-04-17 21:48:00,
2013-04-17 18:03:00,74.2,57.0,30.19,ENE,58,0.0,-999.0,56,-99.99,,,0.00,weatherlink.com 1.10,2013-04-17 22:03:00,
2013-04-17 18:18:00,73.8,57.0,30.20,ENE,64,0.0,-999.0,57,-99.99,,,0.00,weatherlink.com 1.10,2013-04-17 22:18:00,
2013-04-17 18:33:00,73.7,58.0,30.20,ENE,57,0.0,-999.0,58,-99.99,,,0.00,weatherlink.com 1.10,2013-04-17 22:33:00,
2013-04-17 18:48:00,72.8,58.0,30.20,ESE,120,0.0,-999.0,60,-99.99,,,0.00,weatherlink.com 1.10,2013-04-17 22:48:00,
2013-04-17 19:03:00,72.0,59.0,30.20,ESE,120,0.0,-999.0,63,-99.99,,,0.00,weatherlink.com 1.10,2013-04-17 23:03:00,
2013-04-17 19:18:00,71.2,58.0,30.20,SE,126,0.0,-999.0,64,-99.99,,,0.00,weatherlink.com 1.10,2013-04-17 23:18:00,
2013-04-17 19:33:00,70.0,58.0,30.20,SE,146,0.0,-999.0,65,-99.99,,,0.00,weatherlink.com 1.10,2013-04-17 23:33:00,
2013-04-17 19:49:00,69.3,58.0,30.19,SE,134,0.0,-999.0,67,-99.99,,,0.00,weatherlink.com 1.10,2013-04-17 23:49:00,
2013-04-17 20:04:00,68.1,58.0,30.20,SSE,160,0.0,-999.0,70,-99.99,,,0.00,weatherlink.com 1.10,2013-04-18 00:04:00,
2013-04-17 20:19:00,67.2,58.0,30.20,SSE,160,0.0,-999.0,72,-99.99,,,0.00,weatherlink.com 1.10,2013-04-18 00:19:00,
2013-04-17 20:34:00,66.7,58.0,30.20,SSE,160,0.0,-999.0,73,-99.99,,,0.00,weatherlink.com 1.10,2013-04-18 00:34:00,
2013-04-17 20:49:00,66.5,58.0,30.20,SSE,160,0.0,-999.0,75,-99.99,,,0.00,weatherlink.com 1.10,2013-04-18 00:49:00,
2013-04-17 21:04:00,66.4,58.0,30.21,SSE,160,0.0,-999.0,75,-99.99,,,0.00,weatherlink.com 1.10,2013-04-18 01:04:00,
2013-04-17 21:19:00,66.3,59.0,30.21,SSE,160,0.0,-999.0,76,-99.99,,,0.00,weatherlink.com 1.10,2013-04-18 01:19:00,
2013-04-17 21:49:00,66.2,59.0,30.21,SSE,163,0.0,-999.0,78,-99.99,,,0.00,weatherlink.com 1.10,2013-04-18 01:49:00,
2013-04-17 22:04:00,65.5,58.0,30.22,SSE,163,0.0,-999.0,78,-99.99,,,0.00,weatherlink.com 1.10,2013-04-18 02:04:00,
2013-04-17 22:20:00,65.1,58.0,30.21,SSE,163,0.0,-999.0,79,-99.99,,,0.00,weatherlink.com 1.10,2013-04-18 02:20:00,
2013-04-17 22:35:00,64.8,58.0,30.22,SSE,163,0.0,-999.0,79,-99.99,,,0.00,weatherlink.com 1.10,2013-04-18 02:35:00,
2013-04-17 22:50:00,64.6,58.0,30.21,SSE,163,0.0,-999.0,80,-99.99,,,0.00,weatherlink.com 1.10,2013-04-18 02:50:00,
2013-04-17 23:05:00,64.2,58.0,30.21,SSE,163,0.0,-999.0,80,-99.99,,,0.00,weatherlink.com 1.10,2013-04-18 03:05:00,
2013-04-17 23:20:00,63.4,58.0,30.21,SSE,163,0.0,-999.0,81,-99.99,,,0.00,weatherlink.com 1.10,2013-04-18 03:20:00,
2013-04-17 23:35:00,63.1,57.0,30.20,SSE,163,0.0,-999.0,81,-99.99,,,0.00,weatherlink.com 1.10,2013-04-18 03:35:00,
2013-04-17 23:50:00,62.7,57.0,30.20,SSE,163,0.0,-999.0,81,-99.99,,,0.00,weatherlink.com 1.10,2013-04-18 03:50:00,